GW5036 Weather Reports


time (UTC)temp
F
wind
direction
speed
knots
gust
knots
rain 1hr
in
rain 24hr
in
rain mn
in
humidity
%
barometer
mb
20260906113554 64 102 0.0 0.0 0.00 0.00 0.00 95 1009.0
20260906113047 64 102 0.0 0.0 0.00 0.00 0.00 95 1008.8
20260906112801 64 102 0.0 0.0 0.00 0.00 0.00 95 1008.9
20260906112036 64 102 0.0 0.0 0.00 0.00 0.00 94 1008.6
20260906111529 64 102 0.0 0.0 0.00 0.00 0.00 94 1008.6
20260906111023 64 102 0.0 0.0 0.00 0.00 0.00 94 1008.6
20260906110518 64 102 0.0 0.0 0.00 0.00 0.00 94 1008.4
20260906110011 64 102 0.0 0.0 0.00 0.00 0.00 94 1008.4
20260906105506 64 102 0.0 0.0 0.00 0.00 0.00 94 1008.5
20260906105000 64 102 0.0 0.0 0.00 0.00 0.00 94 1008.6
20260906104454 64 102 0.0 0.0 0.00 0.00 0.00 94 1008.5
20260906103442 64 102 0.0 0.0 0.00 0.00 0.00 94 1008.5
20260906102936 64 102 0.0 0.0 0.00 0.00 0.00 94 1008.4
20260906101924 64 102 0.0 0.0 0.00 0.00 0.00 95 1008.4
20260906101418 64 41 0.0 0.0 0.00 0.00 0.00 94 1008.3
20260906100912 64 41 0.0 0.0 0.00 0.00 0.00 94 1008.4
20260906100406 64 344 0.0 0.0 0.00 0.00 0.00 94 1008.3
20260906095859 64 345 0.0 0.0 0.00 0.00 0.00 94 1008.2
20260906095354 64 345 0.0 0.0 0.00 0.00 0.00 94 1008.0
20260906094848 64 345 0.0 0.0 0.00 0.00 0.00 94 1008.0
20260906094342 64 345 0.0 0.0 0.00 0.00 0.00 94 1007.9
20260906093836 64 345 0.0 0.0 0.00 0.00 0.00 94 1008.0
20260906093330 64 345 0.0 0.9 0.00 0.00 0.00 94 1008.0
20260906092825 65 345 0.0 0.9 0.00 0.00 0.00 94 1008.0
20260906092318 64 27 0.0 0.9 0.00 0.00 0.00 94 1007.9
20260906091811 64 100 0.0 0.0 0.00 0.00 0.00 94 1008.0
20260906091307 65 104 0.0 0.9 0.00 0.00 0.00 94 1008.0
20260906090800 65 104 0.0 0.9 0.00 0.00 0.00 94 1008.0
20260906090253 65 113 0.0 0.9 0.00 0.00 0.00 94 1008.0
20260906085747 65 113 0.0 0.9 0.00 0.00 0.00 94 1007.9
20260906085242 65 6 0.0 0.9 0.00 0.00 0.00 94 1007.9
20260906084735 65 6 0.0 0.9 0.00 0.00 0.00 94 1008.0
20260906083734 65 111 0.0 0.0 0.00 0.00 0.00 94 1008.1
20260906083231 65 111 0.0 0.0 0.00 0.00 0.00 94 1007.9
20260906082730 65 111 0.0 0.9 0.00 0.00 0.00 94 1007.8
20260906082228 65 111 0.0 0.9 0.00 0.00 0.00 94 1007.8
20260906081727 65 124 0.0 0.0 0.00 0.00 0.00 94 1007.8
20260906081228 65 126 0.0 0.9 0.00 0.00 0.00 94 1007.9
20260906080726 65 126 0.0 0.9 0.00 0.00 0.00 94 1007.9
20260906080227 65 51 0.0 0.9 0.00 0.00 0.00 94 1007.9
20260906075722 65 347 0.0 0.9 0.00 0.00 0.00 94 1008.0
20260906075220 65 82 0.0 0.9 0.00 0.00 0.00 94 1008.0
20260906074939 65 82 0.0 0.9 0.00 0.00 0.00 94 1007.9
20260906074218 65 63 0.0 0.9 0.00 0.00 0.00 94 1007.8
20260906073718 65 95 0.0 0.9 0.00 0.00 0.00 94 1008.0
20260906073439 65 20 0.0 0.9 0.00 0.00 0.00 94 1008.0
20260906072714 65 89 0.0 0.9 0.00 0.00 0.00 94 1008.0
20260906072438 65 340 0.0 0.9 0.00 0.00 0.00 94 1007.9
20260906071710 65 94 0.0 0.9 0.00 0.00 0.00 94 1007.9
20260906071207 65 48 0.0 0.0 0.00 0.00 0.00 93 1007.9
20260906070708 65 68 0.0 0.0 0.00 0.00 0.00 93 1007.9
20260906070208 65 68 0.0 0.0 0.00 0.00 0.00 93 1008.0
20260906065704 65 68 0.0 0.0 0.00 0.00 0.00 93 1007.9
20260906065203 65 68 0.0 0.0 0.00 0.00 0.00 93 1007.9
20260906064702 66 68 0.0 0.0 0.00 0.00 0.00 93 1008.0
20260906064427 66 68 0.0 0.0 0.00 0.00 0.00 93 1008.1
20260906063700 66 68 0.0 0.0 0.00 0.00 0.00 93 1008.1
20260906063200 66 68 0.0 0.9 0.00 0.00 0.00 93 1008.1
20260906062700 66 68 0.0 0.9 0.00 0.00 0.00 93 1008.1
20260906062415 66 68 0.0 0.0 0.00 0.00 0.00 93 1008.1
20260906061657 66 40 0.0 0.0 0.00 0.00 0.00 93 1008.1
20260906061158 66 84 0.0 0.0 0.00 0.00 0.00 93 1008.3
20260906060658 66 86 0.0 1.7 0.00 0.00 0.00 93 1008.1
20260906060158 66 86 0.0 1.7 0.00 0.00 0.00 93 1008.2
20260906055658 66 27 0.0 0.9 0.00 0.00 0.00 93 1008.2
20260906055156 66 352 0.0 0.9 0.00 0.00 0.00 93 1008.2
20260906054653 67 95 0.0 0.9 0.00 0.00 0.00 93 1008.1
20260906054152 66 83 0.0 0.0 0.00 0.00 0.00 93 1008.1
20260906053652 67 83 0.0 0.9 0.00 0.00 0.00 93 1008.0
20260906053152 67 27 0.0 0.9 0.00 0.00 0.00 93 1008.0
20260906052652 67 324 0.0 0.9 0.00 0.00 0.00 93 1008.0
20260906052152 67 322 0.0 0.9 0.00 0.00 0.00 93 1008.1
20260906051651 67 6 0.0 0.0 0.00 0.00 0.00 93 1008.2
20260906051151 67 69 0.0 0.0 0.00 0.00 0.00 93 1008.1
20260906050652 67 46 0.0 0.0 0.00 0.00 0.00 93 1008.0
20260906050152 67 118 0.0 0.0 0.00 0.00 0.00 92 1007.8
20260906045654 67 118 0.0 0.0 0.00 0.00 0.00 92 1007.8
20260906045416 67 118 0.0 0.0 0.00 0.00 0.00 92 1007.7
20260906044643 67 118 0.0 0.0 0.00 0.00 0.00 92 1007.7
20260906044136 67 118 0.0 0.0 0.00 0.00 0.00 92 1007.7
20260906043850 67 118 0.0 0.9 0.00 0.00 0.00 92 1007.6
20260906043124 67 118 0.0 0.9 0.00 0.00 0.00 92 1007.6
20260906042618 68 30 0.0 0.9 0.00 0.00 0.00 92 1007.5
20260906042113 68 59 0.0 0.9 0.00 0.00 0.00 92 1007.5
20260906041825 68 59 0.0 0.9 0.00 0.00 0.00 92 1007.5
20260906041101 68 71 0.0 0.9 0.00 0.00 0.00 92 1007.4
20260906040555 68 8 0.0 0.9 0.00 0.00 0.00 92 1007.4
20260906040049 68 72 0.0 2.6 0.00 0.00 0.00 92 1007.4
20260906035542 68 105 0.0 2.6 0.00 0.00 0.00 92 1007.3
20260906035036 68 81 0.0 2.6 0.00 0.00 0.00 92 1007.3
20260906034531 68 72 0.0 3.5 0.00 0.00 0.00 92 1007.2
20260906034024 68 339 0.0 3.5 0.00 0.00 0.00 91 1007.2
20260906033013 68 107 0.0 0.9 0.00 0.00 0.00 91 1007.1
20260906032507 68 340 0.0 4.3 0.00 0.00 0.00 91 1007.0
20260906032000 68 340 0.9 4.3 0.00 0.00 0.00 91 1007.0
20260906031455 68 82 0.0 3.5 0.00 0.00 0.00 91 1007.0
20260906030948 68 30 0.0 1.7 0.00 0.00 0.00 91 1007.1
20260906030440 69 99 0.0 1.7 0.00 0.00 0.00 90 1007.0
20260906025933 69 72 0.0 1.7 0.00 0.00 0.00 90 1007.0
20260906025427 69 62 0.0 1.7 0.00 0.00 0.00 90 1007.0
20260906024923 69 70 0.0 0.9 0.00 0.00 0.00 90 1007.0
20260906024640 69 107 0.0 3.5 0.00 0.00 0.00 90 1007.0
20260906023910 69 29 0.9 5.2 0.00 0.00 0.00 90 1007.0
20260906023405 69 83 0.9 5.2 0.00 0.00 0.00 90 1006.9
20260906022906 69 15 0.0 1.7 0.00 0.00 0.00 90 1007.0
20260906022406 70 96 0.0 0.9 0.00 0.00 0.00 89 1007.0
20260906022127 70 107 0.0 1.7 0.00 0.00 0.00 89 1007.0
20260906021406 70 103 0.0 2.6 0.00 0.00 0.00 89 1006.9
20260906020906 70 54 0.0 2.6 0.00 0.00 0.00 89 1007.0
20260906020407 70 71 0.0 1.7 0.00 0.00 0.00 89 1007.0
20260906015904 70 118 0.0 0.9 0.00 0.00 0.00 89 1007.1
20260906015404 70 110 0.0 1.7 0.00 0.00 0.00 88 1006.9
20260906014902 71 118 0.0 1.7 0.00 0.00 0.00 88 1006.8
20260906014400 71 68 0.0 0.9 0.00 0.00 0.00 88 1006.7
20260906013900 71 266 0.0 1.7 0.00 0.00 0.00 88 1006.7
20260906013400 71 34 0.0 1.7 0.00 0.00 0.00 88 1006.9
20260906013114 71 13 0.0 1.7 0.00 0.00 0.00 88 1006.9
20260906012359 71 103 0.0 1.7 0.00 0.00 0.00 88 1006.9
20260906011856 71 59 0.0 2.6 0.00 0.00 0.00 88 1006.8
20260906011617 71 101 0.0 2.6 0.00 0.00 0.00 88 1006.9
20260906010853 71 89 0.9 6.1 0.00 0.00 0.00 88 1006.9
20260906010353 71 74 1.7 6.1 0.00 0.00 0.00 88 1006.9
20260906005854 71 98 0.9 4.3 0.00 0.00 0.00 88 1006.9
20260906005352 71 0 0.9 4.3 0.00 0.00 0.00 88 1006.9
20260906004851 71 293 0.9 4.3 0.00 0.00 0.00 88 1007.0
20260906004351 71 48 0.9 5.2 0.00 0.00 0.00 88 1007.0
20260906003852 71 79 0.9 5.2 0.00 0.00 0.00 87 1006.9
20260906003352 71 77 0.9 5.2 0.00 0.00 0.00 87 1006.7
20260906002852 71 311 0.9 5.2 0.00 0.00 0.00 87 1006.7
20260906002352 71 22 0.9 7.0 0.00 0.00 0.00 87 1006.7
20260906001853 72 18 1.7 7.0 0.00 0.00 0.00 87 1006.7
20260906001352 72 38 1.7 5.2 0.00 0.00 0.00 87 1006.6
20260906000852 72 59 1.7 5.2 0.00 0.00 0.00 87 1006.6
20260906000352 72 41 1.7 5.2 0.00 0.00 0.00 86 1006.6
20260905235852 72 100 1.7 7.8 0.00 0.00 0.00 86 1006.6
20260905235352 72 79 1.7 7.8 0.00 0.00 0.00 86 1006.6
20260905234851 73 113 1.7 7.8 0.00 0.00 0.00 85 1006.4
20260905234352 73 111 2.6 10.4 0.00 0.00 0.00 85 1006.2
20260905234112 73 74 2.6 10.4 0.00 0.00 0.00 84 1006.1
20260905233352 73 46 2.6 9.6 0.00 0.00 0.00 84 1006.2
20260905232851 74 108 2.6 8.7 0.00 0.00 0.00 83 1006.1
20260905232352 74 94 2.6 8.7 0.00 0.00 0.00 84 1006.1
20260905231851 75 66 2.6 8.7 0.00 0.00 0.00 83 1006.1
20260905231351 75 153 2.6 7.8 0.00 0.00 0.00 83 1006.1
20260905230852 75 71 2.6 7.0 0.00 0.00 0.00 83 1006.3
20260905230351 76 91 2.6 7.0 0.00 0.00 0.00 82 1006.2
20260905225850 76 31 2.6 7.0 0.00 0.00 0.00 82 1006.0
20260905225349 77 18 1.7 5.2 0.00 0.00 0.00 82 1005.9
20260905224850 77 76 1.7 5.2 0.00 0.00 0.00 82 1005.7
20260905224350 76 89 1.7 5.2 0.00 0.00 0.00 82 1005.7
20260905223852 76 134 1.7 6.1 0.00 0.00 0.00 82 1005.7
20260905223350 77 32 1.7 6.1 0.00 0.00 0.00 82 1005.6
20260905223118 77 65 1.7 7.8 0.00 0.00 0.00 81 1005.6
20260905222350 77 129 2.6 9.6 0.00 0.00 0.00 81 1005.9
20260905222111 78 87 2.6 9.6 0.00 0.00 0.00 81 1005.9
20260905221350 78 82 2.6 7.0 0.00 0.00 0.00 81 1005.6
20260905220848 78 75 1.7 7.8 0.00 0.00 0.00 80 1005.5
20260905220348 79 148 1.7 7.8 0.00 0.00 0.00 81 1005.6
20260905215846 79 347 2.6 7.0 0.00 0.00 0.00 80 1005.6
20260905215345 79 97 2.6 12.2 0.00 0.00 0.00 79 1005.6
20260905214837 80 118 1.7 12.2 0.00 0.00 0.00 79 1005.5
20260905214331 80 90 2.6 8.7 0.00 0.00 0.00 79 1005.6
20260905213825 80 77 3.5 8.7 0.00 0.00 0.00 77 1005.3
20260905213318 82 115 1.7 7.8 0.00 0.00 0.00 77 1005.3
20260905213035 81 78 1.7 5.2 0.00 0.00 0.00 76 1005.2
20260905212309 81 314 0.9 5.2 0.00 0.00 0.00 76 1005.2
20260905212031 81 36 0.9 3.5 0.00 0.00 0.00 77 1005.2
20260905211531 81 101 0.9 3.5 0.00 0.00 0.00 77 1005.2
20260905210809 81 143 1.7 6.1 0.00 0.00 0.00 76 1005.2
20260905210308 81 79 1.7 6.1 0.00 0.00 0.00 75 1005.0
20260905205808 82 18 1.7 5.2 0.00 0.00 0.00 77 1004.9
20260905205306 81 304 1.7 5.2 0.00 0.00 0.00 75 1005.1
20260905204808 81 41 0.9 4.3 0.00 0.00 0.00 76 1005.1
20260905204306 81 109 0.9 4.3 0.00 0.00 0.00 76 1005.2
20260905203805 81 304 1.7 4.3 0.00 0.00 0.00 74 1005.1
20260905203304 82 356 1.7 4.3 0.00 0.00 0.00 75 1005.2
20260905202804 82 356 1.7 5.2 0.00 0.00 0.00 75 1005.2
20260905201804 81 321 1.7 7.0 0.00 0.00 0.00 76 1005.1
20260905201303 81 23 2.6 7.0 0.00 0.00 0.00 76 1005.1
20260905200803 81 315 1.7 6.1 0.00 0.00 0.00 76 1005.2
20260905200303 81 12 1.7 6.1 0.00 0.00 0.00 75 1005.2
20260905200030 81 302 1.7 5.2 0.00 0.00 0.00 76 1005.2
20260905195300 81 334 1.7 5.2 0.00 0.00 0.00 77 1005.4
20260905194754 81 352 0.9 4.3 0.00 0.00 0.00 76 1005.2
20260905194247 81 75 0.9 3.5 0.00 0.00 0.00 78 1005.5
20260905193741 80 91 0.9 3.5 0.00 0.00 0.00 79 1005.5
20260905193236 80 96 0.9 3.5 0.00 0.00 0.00 80 1005.4
20260905192729 79 72 0.9 3.5 0.00 0.00 0.00 81 1005.7
20260905192223 79 80 1.7 5.2 0.00 0.00 0.00 81 1005.9
20260905191717 79 226 1.7 5.2 0.00 0.00 0.00 80 1005.7
20260905191211 79 18 0.9 7.0 0.00 0.00 0.00 79 1005.9
20260905190706 79 311 1.7 7.0 0.00 0.00 0.00 80 1005.7
20260905190159 78 110 1.7 5.2 0.00 0.00 0.00 82 1005.6
20260905185914 78 58 1.7 4.3 0.00 0.00 0.00 82 1006.0
20260905185148 78 89 1.7 4.3 0.00 0.00 0.00 82 1006.1
20260905184642 78 101 1.7 4.3 0.00 0.00 0.00 82 1006.0
20260905184135 78 269 1.7 4.3 0.00 0.00 0.00 83 1006.0
20260905183629 78 355 1.7 5.2 0.00 0.00 0.00 83 1006.1
20260905183124 78 83 1.7 5.2 0.00 0.00 0.00 83 1006.1
20260905182617 78 15 0.9 3.5 0.00 0.00 0.00 84 1006.2
20260905182111 77 86 0.9 4.3 0.00 0.00 0.00 84 1006.1
20260905181605 77 300 0.9 4.3 0.00 0.00 0.00 83 1006.1
20260905180812 77 339 0.9 3.5 0.00 0.00 0.00 85 1006.1
20260905180047 76 352 0.9 4.3 0.00 0.00 0.00 85 1006.1
20260905175541 76 336 0.9 4.3 0.00 0.00 0.00 85 1006.1
20260905175036 76 30 1.7 6.1 0.00 0.00 0.00 86 1006.1
20260905174529 76 46 0.9 6.1 0.00 0.00 0.00 86 1006.1
20260905174023 76 96 0.9 6.1 0.00 0.00 0.00 86 1006.1
20260905173517 76 29 1.7 7.8 0.00 0.00 0.00 86 1006.1
20260905173013 76 56 0.9 7.8 0.00 0.00 0.00 86 1006.1
20260905172513 76 24 0.9 6.1 0.00 0.00 0.00 87 1006.1
20260905171511 75 139 0.9 4.3 0.00 0.00 0.00 87 1006.2
20260905171011 75 331 0.9 4.3 0.00 0.00 0.00 86 1006.2
20260905170509 76 67 0.9 4.3 0.00 0.00 0.00 87 1006.2
20260905170007 75 307 0.9 5.2 0.00 0.00 0.00 87 1006.2
20260905165729 75 72 0.9 5.2 0.00 0.00 0.00 87 1006.3
20260905165007 75 71 0.9 5.2 0.00 0.00 0.00 87 1006.3
20260905164506 75 39 1.7 5.2 0.00 0.00 0.00 87 1006.4
20260905164005 75 102 1.7 5.2 0.00 0.00 0.00 88 1006.4
20260905163506 75 311 1.7 7.0 0.00 0.00 0.00 88 1006.3
20260905163005 75 27 0.9 7.0 0.00 0.00 0.00 88 1006.3
20260905162505 75 35 0.9 2.6 0.00 0.00 0.00 88 1006.3
20260905162005 75 318 0.9 3.5 0.00 0.00 0.00 88 1006.1
20260905161505 75 26 0.9 3.5 0.00 0.00 0.00 88 1006.3
20260905161228 75 343 0.9 3.5 0.00 0.00 0.00 88 1006.3
20260905160502 75 9 0.9 3.5 0.00 0.00 0.00 87 1006.3
20260905160001 76 102 0.9 3.5 0.00 0.00 0.00 87 1006.3
20260905155719 76 23 1.7 3.5 0.00 0.00 0.00 88 1006.2
20260905154959 76 352 0.9 5.2 0.00 0.00 0.00 87 1006.1
20260905154500 76 11 0.9 5.2 0.00 0.00 0.00 87 1006.1
20260905153957 76 5 1.7 6.1 0.00 0.00 0.00 87 1006.0
20260905153456 76 117 1.7 6.1 0.00 0.00 0.00 87 1005.9
20260905152955 76 275 1.7 6.1 0.00 0.00 0.00 87 1005.9
20260905152454 76 64 0.9 4.3 0.00 0.00 0.00 87 1005.9
20260905151955 76 306 0.9 6.1 0.00 0.00 0.00 87 1005.7
20260905151454 76 13 0.9 6.1 0.00 0.00 0.00 87 1005.6
20260905150952 76 349 0.9 2.6 0.00 0.00 0.00 88 1005.5
20260905150452 76 307 0.9 2.6 0.00 0.00 0.00 88 1005.5
20260905145953 76 310 0.9 3.5 0.00 0.00 0.00 88 1005.5
20260905145449 75 78 0.9 4.3 0.00 0.00 0.00 89 1005.4
20260905145206 75 98 0.9 4.3 0.00 0.00 0.00 90 1005.2
20260905144449 74 271 0.9 4.3 0.00 0.00 0.00 90 1005.2
20260905144211 74 79 0.9 4.3 0.00 0.00 0.00 91 1005.2
20260905143449 74 57 0.9 3.5 0.00 0.00 0.00 91 1005.4
20260905143209 74 272 0.9 4.3 0.00 0.00 0.00 92 1005.3
20260905142449 73 356 0.9 4.3 0.00 0.00 0.00 92 1005.3
20260905141949 73 75 0.9 5.2 0.00 0.00 0.00 92 1005.3
20260905141448 73 99 0.9 5.2 0.00 0.00 0.00 93 1005.4
20260905140945 73 86 0.9 6.1 0.00 0.00 0.00 93 1005.5
20260905140444 73 84 0.9 6.1 0.00 0.00 0.00 93 1005.2
20260905135945 73 340 0.0 2.6 0.00 0.00 0.00 94 1005.2
20260905135444 72 356 0.9 4.3 0.00 0.00 0.00 94 1005.2
20260905134944 72 82 0.9 4.3 0.00 0.00 0.00 94 1005.1
20260905134445 72 117 0.9 4.3 0.00 0.00 0.00 94 1005.0
20260905134204 72 63 0.9 4.3 0.00 0.00 0.00 94 1005.2
20260905133445 72 65 0.9 4.3 0.00 0.00 0.00 94 1005.1
20260905132945 72 16 0.9 4.3 0.00 0.00 0.00 94 1005.1
20260905132701 72 29 0.9 3.5 0.00 0.00 0.00 94 1005.1
20260905131945 72 337 0.0 1.7 0.00 0.00 0.00 94 1005.1
20260905131444 72 212 0.0 1.7 0.00 0.00 0.00 94 1005.3
20260905130944 71 351 0.0 2.6 0.00 0.00 0.00 94 1005.5
20260905130442 71 11 0.0 2.6 0.00 0.00 0.00 94 1005.5
20260905125942 71 315 0.0 2.6 0.00 0.00 0.00 94 1005.2
20260905125443 71 274 0.0 0.9 0.00 0.00 0.00 94 1004.9
20260905124943 71 319 0.9 6.1 0.00 0.00 0.00 94 1004.8
20260905124442 71 36 0.9 6.1 0.00 0.00 0.00 94 1004.9
20260905123942 71 96 0.0 1.7 0.00 0.00 0.00 94 1004.8
20260905123441 71 293 0.9 2.6 0.00 0.00 0.00 94 1004.7
20260905122942 71 90 0.9 2.6 0.00 0.00 0.00 94 1004.5
20260905122442 71 51 0.9 3.5 0.00 0.00 0.00 94 1004.4
20260905121938 71 139 0.0 3.5 0.00 0.00 0.00 94 1004.3
20260905121436 71 356 0.0 1.7 0.00 0.00 0.00 94 1004.2
20260905120937 71 357 0.0 7.0 0.00 0.00 0.00 94 1004.1
20260905120435 71 345 0.9 7.0 0.00 0.00 0.00 94 1004.1
20260905115935 71 6 0.0 4.3 0.00 0.00 0.00 94 1004.0
20260905115435 71 162 0.0 4.3 0.00 0.00 0.00 94 1003.9
20260905114935 70 268 0.9 5.2 0.00 0.00 0.00 94 1003.9
20260905114434 70 106 0.9 5.2 0.00 0.00 0.00 94 1003.9
20260905113933 70 44 0.9 4.3 0.00 0.00 0.00 94 1003.7